Flag for U.S.A. Weather past 2 weeks in Seattle, Washington, U.S.A.

Now
55 °F

Light rain. Cloudy.


Feels Like: 52 °F
Forecast: 49 / 55 °F
Wind: 10 mph from South

Location: Seattle Boeing Field


UV Index: 0 (Low)

Visibility: 10 mi


Pressure: 29.80 "Hg

Humidity: 80%

Dew point: 49 °F

Location of SeattleLocation

Historic Weather in Seattle

°F

Seattle temperature yesterday

Maximum temperature yesterday: 54 °F (at 11:53 AM)
Minimum temperature yesterday: 50 °F (at 6:53 AM)
Average temperature yesterday: 53 °F

Past Weeks' High & Low Weather Summary

 TemperatureHumidityPressure
High72 °F (Apr 7, 3:53 PM)89% (Apr 17, 12:53 AM)30.31 "Hg (Apr 17, 12:53 AM)
Low42 °F (Apr 14, 6:53 AM)18% (Apr 13, 4:53 PM)29.80 "Hg (Apr 17, 1:53 PM)
Average54 °F65%30.11 "Hg
* Reported Apr 2 1:53 PM — Apr 17 1:53 PM, Seattle, Weather by CustomWeather, © 2014

Note: Actual official high and low records may vary slightly from our data, if they occured in-between our weather recording intervals... More about our weather records

Advertising

Historic Weather Conditions — Data for Previous 24 hours

 ConditionsComfort  
Time TempWeatherWind HumidityBarometerVisibility
1:53 PM
Apr 17
55 °FLight rain. Cloudy.10 mph80%29.80 "Hg10 mi
12:53 PM55 °FLight rain. Overcast.5 mph80%29.82 "Hg10 mi
11:53 AM56 °FLight rain. Mostly cloudy.8 mph81%29.82 "Hg10 mi
10:53 AM55 °FLight rain. Cloudy.14 mph83%29.83 "Hg10 mi
10:02 AM55 °FLight rain. Cloudy.9 mph82%29.84 "Hg10 mi
8:53 AM54 °FLight rain. Fog.8 mph86%29.84 "Hg5 mi
7:53 AM53 °FLight rain. Fog.12 mph86%29.85 "Hg5 mi
6:53 AM53 °FLight rain. Overcast.12 mph86%29.86 "Hg5 mi
5:53 AM53 °FLight rain. Mostly cloudy.9 mph83%29.88 "Hg6 mi
4:53 AM53 °FLight rain. Mostly cloudy.6 mph83%29.89 "Hg10 mi
3:53 AM53 °FLight rain. Mostly cloudy.6 mph83%29.89 "Hg10 mi
2:53 AM53 °FMostly cloudy.9 mph83%29.88 "Hg10 mi
1:53 AM53 °FMostly cloudy.12 mph83%29.90 "Hg10 mi
12:53 AM52 °FMostly cloudy.8 mph89%29.92 "Hg10 mi
11:53 PM
Apr 16
53 °FLight rain. Mostly cloudy.9 mph86%29.93 "Hg10 mi
10:53 PM53 °FLight rain. Overcast.7 mph86%29.95 "Hg10 mi
9:53 PM54 °FLight rain. Overcast.9 mph83%29.97 "Hg10 mi
8:53 PM54 °FOvercast.8 mph83%29.98 "Hg10 mi
7:53 PM54 °FLight rain. Overcast.9 mph83%29.98 "Hg10 mi
6:53 PM54 °FLight rain. Overcast.8 mph83%30.00 "Hg10 mi
5:53 PM54 °FLight rain. Overcast.9 mph83%30.02 "Hg10 mi
4:53 PM54 °FLight rain. More clouds than sun.9 mph83%30.03 "Hg10 mi
3:53 PM54 °FLight rain. Cloudy.8 mph80%30.04 "Hg10 mi
Weather by CustomWeather, © 2014

See weather overview